| time (UTC) | temp C | wind direction | speed KPH | gust KPH | rain 1hr cm | rain 24hr cm | rain mn cm | humidity % | barometer mb |
| 20260508233040 | 19 | 178 | 0.0 | 0.0 | 0.00 | 0.00 | 0.00 | 40 | 1013.1 |
| 20260508231552 | 19 | 182 | 0.0 | 3.2 | 0.00 | 0.00 | 0.00 | 38 | 1012.8 |
| 20260508230046 | 20 | 157 | 0.0 | 6.4 | 0.00 | 0.00 | 0.00 | 39 | 1012.9 |
| 20260508224534 | 20 | 348 | 0.0 | 1.6 | 0.00 | 0.00 | 0.00 | 38 | 1012.8 |
| 20260508223039 | 20 | 148 | 0.0 | 4.8 | 0.00 | 0.00 | 0.00 | 35 | 1012.9 |
| 20260508221528 | 21 | 163 | 0.0 | 8.0 | 0.00 | 0.00 | 0.00 | 36 | 1013.1 |
| 20260508220030 | 21 | 186 | 0.0 | 6.4 | 0.00 | 0.00 | 0.00 | 35 | 1013.2 |
| 20260508214527 | 22 | 279 | 1.6 | 4.8 | 0.00 | 0.00 | 0.00 | 33 | 1013.3 |
| 20260508213025 | 23 | 46 | 0.0 | 8.0 | 0.00 | 0.00 | 0.00 | 31 | 1013.3 |
| 20260508211525 | 23 | 328 | 0.0 | 9.7 | 0.00 | 0.00 | 0.00 | 31 | 1013.3 |
| 20260508210025 | 22 | 289 | 0.0 | 11.3 | 0.00 | 0.00 | 0.00 | 30 | 1013.3 |
| 20260508204525 | 23 | 194 | 0.0 | 11.3 | 0.00 | 0.00 | 0.00 | 30 | 1013.5 |
| 20260508203027 | 23 | 299 | 0.0 | 6.4 | 0.00 | 0.00 | 0.00 | 31 | 1013.5 |
| 20260508201525 | 23 | 174 | 0.0 | 6.4 | 0.00 | 0.00 | 0.00 | 31 | 1013.6 |
| 20260508200027 | 23 | 225 | 0.0 | 8.0 | 0.00 | 0.00 | 0.00 | 31 | 1013.5 |
| 20260508194523 | 23 | 180 | 0.0 | 6.4 | 0.00 | 0.00 | 0.00 | 30 | 1014.0 |
| 20260508193031 | 23 | 280 | 1.6 | 6.4 | 0.00 | 0.00 | 0.00 | 33 | 1014.1 |
| 20260508191535 | 23 | 198 | 0.0 | 4.8 | 0.00 | 0.00 | 0.00 | 32 | 1014.4 |
| 20260508190030 | 23 | 208 | 0.0 | 4.8 | 0.00 | 0.00 | 0.00 | 31 | 1014.6 |
| 20260508184524 | 23 | 184 | 0.0 | 6.4 | 0.00 | 0.00 | 0.00 | 32 | 1014.8 |
| 20260508183027 | 23 | 246 | 0.0 | 4.8 | 0.00 | 0.00 | 0.00 | 32 | 1015.1 |
| 20260508181523 | 23 | 246 | 0.0 | 4.8 | 0.00 | 0.00 | 0.00 | 31 | 1015.2 |
| 20260508180019 | 22 | 225 | 0.0 | 14.5 | 0.00 | 0.00 | 0.00 | 34 | 1015.5 |
| 20260508174516 | 22 | 286 | 0.0 | 6.4 | 0.00 | 0.00 | 0.00 | 31 | 1015.6 |
| 20260508173016 | 22 | 130 | 0.0 | 6.4 | 0.00 | 0.00 | 0.00 | 34 | 1015.7 |
| 20260508171514 | 22 | 277 | 0.0 | 4.8 | 0.00 | 0.00 | 0.00 | 32 | 1015.8 |
| 20260508170015 | 22 | 190 | 1.6 | 9.7 | 0.00 | 0.00 | 0.00 | 33 | 1016.1 |
| 20260508164517 | 22 | 161 | 0.0 | 8.0 | 0.00 | 0.00 | 0.00 | 31 | 1016.3 |
| 20260508163009 | 21 | 213 | 0.0 | 6.4 | 0.00 | 0.00 | 0.00 | 35 | 1016.7 |
| 20260508161507 | 21 | 300 | 0.0 | 6.4 | 0.00 | 0.00 | 0.00 | 35 | 1016.9 |
| 20260508160008 | 21 | 255 | 0.0 | 4.8 | 0.00 | 0.00 | 0.00 | 36 | 1017.0 |
| 20260508154606 | 20 | 153 | 0.0 | 6.4 | 0.00 | 0.00 | 0.00 | 38 | 1017.1 |
| 20260508153058 | 19 | 242 | 0.0 | 3.2 | 0.00 | 0.00 | 0.00 | 38 | 1017.3 |
| 20260508151556 | 19 | 219 | 0.0 | 4.8 | 0.00 | 0.00 | 0.00 | 41 | 1017.4 |
| 20260508150052 | 19 | 84 | 0.0 | 0.0 | 0.00 | 0.00 | 0.00 | 43 | 1017.6 |
| 20260508144548 | 18 | 92 | 0.0 | 0.0 | 0.00 | 0.00 | 0.00 | 43 | 1017.6 |
| 20260508143046 | 18 | 88 | 0.0 | 0.0 | 0.00 | 0.00 | 0.00 | 50 | 1017.7 |
| 20260508141540 | 17 | 86 | 0.0 | 0.0 | 0.00 | 0.00 | 0.00 | 51 | 1017.7 |
| 20260508140040 | 16 | 86 | 0.0 | 0.0 | 0.00 | 0.00 | 0.00 | 56 | 1017.9 |
| 20260508134534 | 15 | 85 | 0.0 | 0.0 | 0.00 | 0.00 | 0.00 | 55 | 1017.9 |
| 20260508133028 | 14 | 85 | 0.0 | 0.0 | 0.00 | 0.00 | 0.00 | 64 | 1017.9 |
| 20260508131525 | 13 | 85 | 0.0 | 0.0 | 0.00 | 0.00 | 0.00 | 80 | 1017.9 |
| 20260508130023 | 12 | 85 | 0.0 | 0.0 | 0.00 | 0.00 | 0.00 | 92 | 1017.9 |
| 20260508124521 | 11 | 85 | 0.0 | 0.0 | 0.00 | 0.00 | 0.00 | 97 | 1017.9 |
| 20260508123021 | 11 | 144 | 0.0 | 0.0 | 0.00 | 0.00 | 0.00 | 97 | 1017.8 |
| 20260508121520 | 9 | 142 | 0.0 | 1.6 | 0.00 | 0.00 | 0.00 | 97 | 1017.7 |
| 20260508120030 | 7 | 142 | 0.0 | 0.0 | 0.00 | 0.00 | 0.00 | 97 | 1017.5 |
| 20260508114515 | 6 | 142 | 0.0 | 0.0 | 0.00 | 0.00 | 0.00 | 97 | 1017.1 |
| 20260508113015 | 6 | 142 | 0.0 | 0.0 | 0.00 | 0.00 | 0.00 | 96 | 1017.0 |
| 20260508111511 | 5 | 142 | 0.0 | 0.0 | 0.00 | 0.00 | 0.00 | 96 | 1016.8 |
| 20260508110007 | 5 | 142 | 0.0 | 0.0 | 0.00 | 0.00 | 0.00 | 96 | 1016.4 |
| 20260508104505 | 5 | 142 | 0.0 | 0.0 | 0.00 | 0.00 | 0.00 | 95 | 1016.1 |
| 20260508103004 | 5 | 142 | 0.0 | 0.0 | 0.00 | 0.00 | 0.00 | 95 | 1016.0 |
| 20260508101504 | 5 | 142 | 0.0 | 0.0 | 0.00 | 0.00 | 0.00 | 95 | 1015.9 |
| 20260508100001 | 5 | 142 | 0.0 | 0.0 | 0.00 | 0.00 | 0.00 | 95 | 1015.7 |
| 20260508094602 | 5 | 142 | 0.0 | 0.0 | 0.00 | 0.00 | 0.00 | 95 | 1015.5 |
| 20260508093104 | 6 | 142 | 0.0 | 0.0 | 0.00 | 0.00 | 0.00 | 95 | 1015.4 |
| 20260508091608 | 6 | 142 | 0.0 | 0.0 | 0.00 | 0.00 | 0.00 | 95 | 1015.2 |
| 20260508090100 | 6 | 142 | 0.0 | 0.0 | 0.00 | 0.00 | 0.00 | 95 | 1015.1 |
| 20260508084550 | 7 | 142 | 0.0 | 0.0 | 0.00 | 0.00 | 0.00 | 95 | 1015.0 |
| 20260508083055 | 7 | 142 | 0.0 | 0.0 | 0.00 | 0.00 | 0.00 | 96 | 1014.9 |
| 20260508081550 | 7 | 142 | 0.0 | 0.0 | 0.00 | 0.00 | 0.00 | 96 | 1014.6 |
| 20260508080044 | 8 | 142 | 0.0 | 0.0 | 0.00 | 0.00 | 0.00 | 96 | 1014.6 |
| 20260508074544 | 8 | 142 | 0.0 | 0.0 | 0.00 | 0.00 | 0.00 | 96 | 1014.4 |
| 20260508073048 | 8 | 142 | 0.0 | 0.0 | 0.00 | 0.00 | 0.00 | 96 | 1014.3 |
| 20260508071545 | 8 | 142 | 0.0 | 0.0 | 0.00 | 0.00 | 0.00 | 96 | 1014.2 |
| 20260508070043 | 7 | 142 | 0.0 | 0.0 | 0.00 | 0.00 | 0.00 | 96 | 1014.0 |
| 20260508064542 | 7 | 142 | 0.0 | 0.0 | 0.00 | 0.00 | 0.00 | 96 | 1014.1 |
| 20260508063041 | 7 | 142 | 0.0 | 0.0 | 0.00 | 0.00 | 0.00 | 96 | 1013.9 |
| 20260508061538 | 7 | 142 | 0.0 | 0.0 | 0.00 | 0.00 | 0.00 | 95 | 1013.6 |
| 20260508060034 | 7 | 142 | 0.0 | 0.0 | 0.00 | 0.00 | 0.00 | 96 | 1013.4 |
| 20260508054534 | 7 | 142 | 0.0 | 0.0 | 0.00 | 0.00 | 0.00 | 95 | 1013.3 |
| 20260508053033 | 7 | 142 | 0.0 | 0.0 | 0.00 | 0.00 | 0.00 | 95 | 1013.3 |
| 20260508051535 | 8 | 142 | 0.0 | 0.0 | 0.00 | 0.00 | 0.00 | 95 | 1013.3 |
| 20260508050033 | 8 | 142 | 0.0 | 0.0 | 0.00 | 0.00 | 0.00 | 95 | 1013.2 |
| 20260508044530 | 8 | 142 | 0.0 | 0.0 | 0.00 | 0.00 | 0.00 | 95 | 1013.2 |
| 20260508043028 | 8 | 142 | 0.0 | 0.0 | 0.00 | 0.00 | 0.00 | 95 | 1013.0 |
| 20260508041526 | 8 | 142 | 0.0 | 0.0 | 0.00 | 0.00 | 0.00 | 95 | 1013.1 |
| 20260508040025 | 8 | 142 | 0.0 | 0.0 | 0.00 | 0.00 | 0.00 | 95 | 1012.9 |
| 20260508034529 | 8 | 142 | 0.0 | 0.0 | 0.00 | 0.00 | 0.00 | 95 | 1012.9 |
| 20260508033022 | 8 | 142 | 0.0 | 0.0 | 0.00 | 0.00 | 0.00 | 94 | 1012.7 |
| 20260508031525 | 8 | 142 | 0.0 | 0.0 | 0.00 | 0.00 | 0.00 | 94 | 1012.8 |
| 20260508030021 | 8 | 142 | 0.0 | 0.0 | 0.00 | 0.00 | 0.00 | 94 | 1012.7 |
| 20260508024520 | 8 | 142 | 0.0 | 0.0 | 0.00 | 0.00 | 0.00 | 94 | 1012.7 |
| 20260508023019 | 8 | 142 | 0.0 | 0.0 | 0.00 | 0.00 | 0.00 | 93 | 1012.6 |
| 20260508021515 | 8 | 142 | 0.0 | 0.0 | 0.00 | 0.00 | 0.00 | 93 | 1012.5 |
| 20260508020019 | 9 | 142 | 0.0 | 0.0 | 0.00 | 0.00 | 0.00 | 92 | 1012.4 |
| 20260508014512 | 9 | 142 | 0.0 | 0.0 | 0.00 | 0.00 | 0.00 | 92 | 1012.2 |
| 20260508013009 | 10 | 142 | 0.0 | 0.0 | 0.00 | 0.00 | 0.00 | 92 | 1012.0 |
| 20260508011506 | 10 | 142 | 0.0 | 0.0 | 0.00 | 0.00 | 0.00 | 91 | 1012.1 |
| 20260508010002 | 10 | 142 | 0.0 | 0.0 | 0.00 | 0.00 | 0.00 | 91 | 1011.9 |
| 20260508004601 | 11 | 142 | 0.0 | 0.0 | 0.00 | 0.00 | 0.00 | 91 | 1011.8 |
| 20260508003056 | 11 | 142 | 0.0 | 0.0 | 0.00 | 0.00 | 0.00 | 90 | 1011.8 |
| 20260508001556 | 11 | 142 | 0.0 | 0.0 | 0.00 | 0.00 | 0.00 | 90 | 1011.5 |
| 20260508000052 | 12 | 142 | 0.0 | 0.0 | 0.00 | 0.00 | 0.00 | 90 | 1011.4 |
| 20260507234554 | 12 | 142 | 0.0 | 0.0 | 0.00 | 0.00 | 0.00 | 89 | 1011.1 |